[[{"header":{"parameterUnit":"m.s-1","parameterCategory":2,"la1":30.2991,"la2":30.254,"lo1":-89.0895,"lo2":-89.0444,"dy":0.0017,"dx":0.0017,"nx":28,"ny":28,"refTime":"2024-02-07T09:00:00:Z","depth":"0","parameterNumber":2,"parameterNumberName":"U-component_of_CURRENTS"},"data":[0,0,0,0,0,0,0,0,0,0,0,0,0,0,0,0,0,0,0,0,0,0,0,0,0,0,0,0,0,0,0,0,0,0,0,0,0,0,0,0,0,0,0,0,0,0,0,0,0,0,0,0,0,0,0,0,0,0,0.3836,0.3837,0,0.3866,0.3866,0.3866,0.3848,0.3848,0.3847,0.3847,0.3825,0.3825,0.3825,0,0,0,0,0,0,0,0,0,0,0,0,0,0.3764,0.3765,0.3836,0.3837,0.3838,0.3866,0.3866,0.3866,0.3848,0.3848,0.3847,0.3847,0.3825,0.3825,0.3825,0,0,0,0,0,0,0,0,0,0,0,0,0,0.379,0.3765,0.3836,0.3836,0.3837,0.3866,0.3866,0.3866,0.3848,0.3848,0.3847,0.3847,0.3825,0.3825,0.3825,0.3834,0,0,0.3824,0.3824,0,0,0,0,0,0,0,0,0.3788,0.3792,0.3835,0.3836,0.3837,0.3857,0.3833,0.3855,0.3848,0.3838,0.3847,0.3846,0.3835,0.3834,0.3834,0.3833,0.3832,0.3824,0.3824,0.3823,0.3823,0,0,0,0,0,0,0,0.3787,0.3791,0.3843,0.3837,0.3838,0.3836,0.3838,0.3837,0.3835,0.3839,0.3839,0.3851,0.3834,0.3834,0.3833,0.3832,0.3824,0.3823,0.3823,0.3823,0.3885,0.3886,0,0,0,0,0,0,0.3794,0.3789,0.3842,0.3844,0.3817,0.3838,0.384,0.3847,0.3836,0.3835,0.3852,0.385,0.3835,0.3834,0.3833,0.3879,0.3823,0.3823,0.3823,0.3883,0.3885,0.3887,0,0,0,0,0,0,0.3793,0.3799,0.3841,0.3822,0.3827,0.384,0.3848,0.3848,0.3856,0.3847,0.3844,0.386,0.3835,0.3833,0.3848,0.3877,0.3823,0.3823,0.3881,0.3884,0.3886,0.3949,0,0,0,0,0,0,0.379,0.3798,0.3803,0.3822,0.3829,0.3871,0.3849,0.3849,0.3866,0.3864,0.3853,0.385,0.3834,0.3849,0.3848,0.3875,0.3822,0.3878,0.3882,0.3885,0.3945,0.3954,0.3961,0,0,0,0,0,0.3787,0.3797,0.3802,0.3809,0.3836,0.3872,0.3876,0.3879,0.3867,0.388,0.3874,0.3851,0.387,0.385,0.3849,0.3876,0.3877,0.3881,0.3885,0.3941,0.3952,0.3961,0,0,0,0,0,0,0.3763,0.3798,0.3803,0.3821,0.3853,0.3872,0.3885,0.3887,0.3892,0.3887,0.3869,0.3867,0.3898,0.388,0.3858,0.3907,0.3872,0.3876,0.3915,0.3925,0.3933,0.3942,0.3822,0,0,0,0,0,0.3764,0.3782,0.3818,0.3834,0.3852,0.387,0.3884,0.389,0.3901,0.3902,0.3896,0.3895,0.3914,0.3912,0.3922,0.3939,0.3951,0.3959,0.3967,0.3974,0.3982,0.4031,0.4045,0.3901,0.3901,0.3901,0,0,0.3759,0.3782,0.3791,0.3831,0.3852,0.3883,0.3876,0.3905,0.3927,0.3899,0.392,0.3927,0.3929,0.3958,0.3968,0.3943,0.4026,0.398,0.3985,0.399,0.4037,0.4051,0.4063,0.3903,0.3903,0.3902,0,0,0.3763,0.3782,0.3801,0.3833,0.3876,0.3895,0.3908,0.3937,0.3947,0.3975,0.397,0.3996,0.4003,0.4018,0.4025,0.4085,0.4077,0.4087,0.4124,0.4172,0.4184,0.4195,0.4243,0.4258,0.4081,0.4081,0.4081,0,0.3754,0.3785,0.3814,0.3846,0.3871,0.3904,0.3931,0.3958,0.3984,0.4004,0.3989,0.4039,0.4037,0.4088,0.411,0.4104,0.4129,0.4083,0.4183,0.4193,0.4203,0.425,0.4265,0.4085,0.4084,0.4084,0.4084,0,0.3777,0.3805,0.3825,0.3875,0.3904,0.3939,0.3983,0.4016,0.4032,0.4055,0.4111,0.4119,0.4148,0.4158,0.415,0.4223,0.4219,0.4195,0.4155,0.4222,0.4267,0.4282,0.409,0.4089,0.4087,0.4087,0,0,0.3743,0.3824,0.3828,0.3856,0.3922,0.3946,0.4004,0.4065,0.4113,0.4138,0.4195,0.423,0.4241,0.4252,0.4253,0.4288,0.4383,0.4272,0.4272,0.4317,0.4499,0.4489,0.4503,0.4376,0.4379,0.4381,0.4508,0,0.3752,0.3801,0.3846,0.3898,0.3927,0.3986,0.4039,0.4096,0.4152,0.4219,0.4249,0.4307,0.4276,0.4304,0.4336,0.4383,0.4423,0.4351,0.4431,0.4433,0.4413,0.452,0.4408,0.4511,0.4522,0.4524,0.4526,0,0.3751,0.3787,0.3828,0.3911,0.3932,0.3969,0.4063,0.4123,0.4233,0.4282,0.4346,0.438,0.4455,0.4412,0.4515,0.4473,0.4493,0.4514,0.4519,0.4496,0.4451,0.4444,0.4537,0.4424,0.4548,0.4546,0.4545,0,0.3686,0.3773,0.38,0.3827,0.3925,0.3959,0.4021,0.4128,0.4192,0.4333,0.4394,0.4481,0.454,0.4581,0.4627,0.4584,0.4738,0.4679,0.4687,0.4686,0.46,0.4587,0.4587,0.4749,0.4748,0.4748,0.4747,0,0.3666,0.3691,0.3773,0.3786,0.3843,0.392,0.4,0.4095,0.4219,0.4299,0.4415,0.4492,0.4587,0.4675,0.4685,0.4755,0.4788,0.4728,0.4731,0.462,0.4609,0.451,0.4443,0.4753,0.4752,0.4751,0.475,0,0.359,0.3643,0.3685,0.3778,0.3809,0.3847,0.3973,0.4034,0.4179,0.4292,0.434,0.453,0.4672,0.4757,0.4864,0.4842,0.4776,0.49,0.4773,0.4758,0.4632,0.4572,0.4422,0.4284,0.4935,0.4936,0.4937,0,0.3556,0.3565,0.3653,0.367,0.3713,0.3784,0.3832,0.399,0.4066,0.4294,0.4341,0.4544,0.4683,0.4877,0.4915,0.4991,0.4798,0.4884,0.4772,0.4645,0.4581,0.4374,0.4251,0.4689,0.4688,0.4686,0.4685,0,0.3492,0.352,0.355,0.3586,0.3628,0.3684,0.3774,0.3825,0.4013,0.4129,0.4314,0.4459,0.4723,0.4792,0.4919,0.4929,0.4667,0.486,0.4758,0.4428,0.4172,0.4033,0.4589,0.4674,0.4676,0.4676,0.4677,0.4677,0.3434,0.3436,0.3464,0.3491,0.3527,0.3549,0.355,0.3664,0.3763,0.3902,0.4155,0.4324,0.4572,0.4773,0.4753,0.4685,0.4611,0.4554,0.451,0.4325,0.4126,0.467,0.4733,0.4735,0.4736,0.4737,0.4738,0,0.3342,0.3346,0.3365,0.337,0.3343,0.3416,0.3472,0.3449,0.3493,0.3714,0.3875,0.4144,0.4262,0.441,0.4499,0.4368,0.4137,0.4237,0.3914,0.3822,0.4358,0.4284,0.4215,0.4215,0.4215,0.4215,0.4215,0.4216,0.329,0.3254,0.3258,0.3171,0.317,0.3088,0.3082,0.3089,0.3197,0.3325,0.3487,0.3707,0.4078,0.4263,0.4202,0.4099,0.3751,0.3615,0.3541,0.3942,0.3966,0.3989,0.3903,0.3756,0.3755,0.2864,0.2857,0.2852]},{"header":{"parameterUnit":"m.s-1","parameterCategory":2,"la1":30.2991,"la2":30.254,"lo1":-89.0895,"lo2":-89.0444,"dy":0.0017,"dx":0.0017,"nx":28,"ny":28,"refTime":"2024-02-07T09:00:00:Z","depth":"0","parameterNumber":3,"parameterNumberName":"V-component_of_CURRENTS"},"data":[0,0,0,0,0,0,0,0,0,0,0,0,0,0,0,0,0,0,0,0,0,0,0,0,0,0,0,0,0,0,0,0,0,0,0,0,0,0,0,0,0,0,0,0,0,0,0,0,0,0,0,0,0,0,0,0,0,0,0.0049,0.0049,0,-0.0017,-0.0018,-0.0019,-0.0072,-0.0072,-0.0073,-0.0073,-0.0182,-0.0185,-0.0188,0,0,0,0,0,0,0,0,0,0,0,0,0,0.0071,0.0071,0.0049,0.0049,0.0048,-0.0017,-0.0018,-0.0019,-0.0072,-0.0072,-0.0073,-0.0073,-0.0182,-0.0185,-0.0188,0,0,0,0,0,0,0,0,0,0,0,0,0,0.0037,0.0071,0.0049,0.0015,0.0012,-0.0017,-0.0018,-0.0019,-0.0072,-0.0072,-0.0073,-0.0073,-0.0181,-0.0184,-0.0188,-0.0202,0,0,-0.02,-0.0202,0,0,0,0,0,0,0,0,0.0039,0.0036,0.0021,0.0018,0.0014,-0.0035,-0.005,-0.0082,-0.0072,-0.0042,-0.0073,-0.0074,-0.0135,-0.0143,-0.0157,-0.0208,-0.0212,-0.0201,-0.0203,-0.0205,-0.0206,0,0,0,0,0,0,0,0.0042,0.0038,0.0021,0.002,0.0016,-0.0016,-0.0022,-0.0057,-0.0088,-0.0045,-0.0048,-0.0052,-0.0138,-0.0153,-0.016,-0.0214,-0.02,-0.0204,-0.0206,-0.0208,-0.029,-0.029,0,0,0,0,0,0,0.0058,0.0041,0.0023,0.0019,0.0028,-0.0016,-0.0022,-0.0021,-0.0087,-0.0096,-0.0052,-0.0054,-0.0146,-0.0155,-0.0164,-0.0171,-0.0205,-0.0208,-0.021,-0.0291,-0.029,-0.029,0,0,0,0,0,0,0.0059,0.0057,0.0026,0.003,0.0024,-0.0015,-0.0014,-0.0022,-0.0035,-0.0091,-0.0102,-0.0056,-0.0147,-0.0158,-0.0188,-0.0176,-0.021,-0.0214,-0.0291,-0.0291,-0.029,-0.0194,0,0,0,0,0,0,0.006,0.0058,0.0065,0.0031,0.0024,0.002,-0.0013,-0.0022,-0.0035,-0.004,-0.0098,-0.0109,-0.0148,-0.0182,-0.0192,-0.0182,-0.0217,-0.0291,-0.0291,-0.029,-0.0198,-0.0191,-0.0185,0,0,0,0,0,0.0061,0.0079,0.0066,0.0063,0.0035,0.0021,0.0014,-0.0018,-0.0035,-0.0033,-0.0074,-0.0107,-0.0188,-0.0184,-0.0196,-0.0188,-0.0291,-0.0291,-0.029,-0.02,-0.0192,-0.0185,0,0,0,0,0,0,0.0093,0.0075,0.0059,0.0071,0.0051,0.0013,0.0013,-0.0011,-0.0042,-0.0044,-0.0103,-0.0116,-0.0138,-0.0178,-0.0173,-0.0213,-0.0246,-0.0248,-0.0174,-0.0166,-0.016,-0.0127,-0.022,0,0,0,0,0,0.0105,0.0112,0.0085,0.0093,0.0088,0.005,0.004,0.0022,-0.0009,-0.0024,-0.0065,-0.0111,-0.0147,-0.0167,-0.0205,-0.0224,-0.0263,-0.0229,-0.0223,-0.0217,-0.0199,-0.0249,-0.0245,-0.0289,-0.0289,-0.0289,0,0,0.0119,0.011,0.0114,0.01,0.0082,0.009,0.0043,0.0039,0.0045,-0.003,-0.0039,-0.0088,-0.0147,-0.0167,-0.0181,-0.0198,-0.0227,-0.0216,-0.0211,-0.0196,-0.0248,-0.0244,-0.024,-0.0289,-0.0289,-0.0289,0,0,0.0162,0.0145,0.0169,0.016,0.0145,0.0122,0.0126,0.0094,0.0077,0.006,0.0009,-0.0029,-0.0087,-0.0122,-0.0149,-0.0132,-0.0191,-0.0151,-0.0092,-0.014,-0.0136,-0.0133,-0.018,-0.0182,-0.0148,-0.0148,-0.0148,0,0.018,0.0206,0.0172,0.0194,0.0197,0.0144,0.0173,0.015,0.0112,0.0106,0.0071,-0.0009,-0.0063,-0.0084,-0.008,-0.0115,-0.0153,-0.0112,-0.0129,-0.0127,-0.0126,-0.0175,-0.0179,-0.0144,-0.0144,-0.0145,-0.0145,0,0.0239,0.026,0.0274,0.0284,0.0281,0.0296,0.0266,0.0259,0.0226,0.0198,0.0166,0.0087,0.0043,0.0012,-0.003,-0.0045,-0.0078,-0.0113,-0.0141,-0.0115,-0.0169,-0.0175,-0.0137,-0.0138,-0.014,-0.0141,0,0,0.0287,0.0312,0.0319,0.0343,0.0333,0.034,0.0352,0.0347,0.0366,0.0299,0.0308,0.0224,0.0176,0.0142,0.0076,0.0028,-0.0005,-0.003,-0.0034,-0.0062,-0.011,-0.011,-0.0117,-0.0043,-0.0043,-0.0044,-0.0152,0,0.0345,0.0413,0.0403,0.0463,0.0495,0.046,0.048,0.0467,0.0438,0.0431,0.0339,0.0315,0.0227,0.0208,0.0147,0.0041,-0.0014,0.0028,-0.0142,-0.0147,-0.0139,-0.0121,-0.0073,-0.0163,-0.0157,-0.0158,-0.0159,0,0.0415,0.045,0.0522,0.0566,0.0577,0.0602,0.0629,0.0641,0.0613,0.059,0.054,0.0464,0.039,0.0305,0.0139,0.017,0.0045,-0.0052,-0.006,-0.0092,-0.0156,-0.019,-0.0174,-0.0416,-0.0168,-0.0167,-0.0167,0,0.0478,0.0538,0.0599,0.0612,0.0646,0.0677,0.0698,0.0696,0.0733,0.0695,0.071,0.059,0.055,0.0378,0.0181,0.0157,-0.0005,-0.0069,-0.0193,-0.0196,-0.0203,-0.0204,-0.0425,-0.0192,-0.0192,-0.0191,-0.0191,0,0.055,0.0601,0.0639,0.0673,0.0759,0.0756,0.0843,0.0843,0.0871,0.0928,0.0804,0.0825,0.0568,0.0441,0.0233,0.0024,0.003,-0.017,-0.0217,-0.0169,-0.0166,-0.0417,-0.0538,-0.0195,-0.0195,-0.0194,-0.0193,0,0.0614,0.0633,0.0714,0.077,0.0794,0.0862,0.0959,0.1026,0.1031,0.1103,0.1099,0.1007,0.0846,0.0583,0.0312,0.0115,-0.0226,-0.0189,-0.0111,-0.0146,-0.049,-0.0604,-0.0855,-0.0937,-0.0347,-0.0347,-0.0348,0,0.0651,0.0699,0.0791,0.0853,0.0885,0.0983,0.106,0.1104,0.119,0.1227,0.128,0.1155,0.1112,0.0729,0.0347,-0.0011,-0.0238,-0.0217,-0.0261,-0.049,-0.0655,-0.0753,-0.081,-0.0246,-0.0245,-0.0245,-0.0245,0,0.0725,0.0757,0.0823,0.0955,0.1049,0.1164,0.1283,0.1379,0.1433,0.1516,0.1603,0.1578,0.121,0.0887,0.0387,0.0132,-0.0357,-0.0221,-0.0485,-0.0604,-0.07,-0.0804,-0.0204,-0.0242,-0.0242,-0.0242,-0.0242,-0.0243,0.0781,0.0847,0.094,0.1066,0.1183,0.134,0.1459,0.1602,0.177,0.1906,0.186,0.1892,0.1382,0.0728,0.0338,-0.0348,-0.0369,-0.0562,-0.0686,-0.0768,-0.0834,-0.0217,-0.029,-0.0291,-0.0291,-0.0292,-0.0292,0,0.0851,0.0926,0.1047,0.1201,0.1346,0.1395,0.1601,0.1741,0.1966,0.2106,0.2198,0.201,0.1388,0.0727,-0.0205,-0.072,-0.0897,-0.1005,-0.1153,-0.1192,-0.0668,-0.0649,-0.0771,-0.0771,-0.0771,-0.077,-0.077,-0.077,0.0889,0.1009,0.1071,0.1308,0.1428,0.1632,0.1761,0.1981,0.2149,0.2367,0.2433,0.2431,0.1927,0.0234,-0.0947,-0.1216,-0.1561,-0.1641,-0.1833,-0.1507,-0.1476,-0.1447,-0.1462,-0.1752,-0.1753,-0.2279,-0.2284,-0.2289]}],[{"header":{"parameterUnit":"m.s-1","parameterCategory":2,"la1":30.2991,"la2":30.254,"lo1":-89.0895,"lo2":-89.0444,"dy":0.0017,"dx":0.0017,"nx":28,"ny":28,"refTime":"2024-02-07T09:00:00:Z","depth":"2","parameterNumber":2,"parameterNumberName":"U-component_of_CURRENTS"},"data":[0,0,0,0,0,0,0,0,0,0,0,0,0,0,0,0,0,0,0,0,0,0,0,0,0,0,0,0,0,0,0,0,0,0,0,0,0,0,0,0,0,0,0,0,0,0,0,0,0,0,0,0,0,0,0,0,0,0,0.3324,0.3325,0,0.3364,0.3364,0.3364,0.3363,0.3363,0.3363,0.3363,0.3368,0.3368,0.3368,0,0,0,0,0,0,0,0,0,0,0,0,0,0.3247,0.3248,0.3324,0.3325,0.3326,0.3364,0.3364,0.3364,0.3363,0.3363,0.3363,0.3363,0.3368,0.3368,0.3368,0,0,0,0,0,0,0,0,0,0,0,0,0,0.3279,0.3248,0.3324,0.3333,0.3335,0.3364,0.3364,0.3364,0.3363,0.3363,0.3363,0.3362,0.3367,0.3368,0.3368,0.3375,0,0,0.3369,0.337,0,0,0,0,0,0,0,0,0.3277,0.3281,0.3331,0.3333,0.3334,0.3362,0.3339,0.3368,0.3363,0.3348,0.3363,0.3362,0.3366,0.3366,0.3368,0.3375,0.3376,0.337,0.337,0.337,0.337,0,0,0,0,0,0,0,0.3275,0.3279,0.3335,0.3332,0.3334,0.3336,0.3339,0.3344,0.3353,0.3349,0.335,0.3362,0.3366,0.3368,0.3368,0.3376,0.3369,0.337,0.337,0.337,0.3452,0.3454,0,0,0,0,0,0,0.3279,0.3278,0.3334,0.3337,0.3309,0.3337,0.3341,0.335,0.3354,0.3356,0.3362,0.3361,0.3367,0.3368,0.3369,0.3429,0.337,0.337,0.3371,0.345,0.3452,0.3454,0,0,0,0,0,0,0.3277,0.3284,0.3333,0.3312,0.3319,0.3339,0.3349,0.3351,0.3367,0.3365,0.3365,0.3378,0.3367,0.3368,0.3393,0.3427,0.337,0.3371,0.3448,0.3451,0.3453,0.3516,0,0,0,0,0,0,0.3275,0.3283,0.3293,0.3312,0.332,0.3365,0.3349,0.3352,0.3376,0.3376,0.3379,0.3378,0.3367,0.3393,0.3394,0.3426,0.3371,0.3445,0.3449,0.3452,0.3511,0.352,0.3528,0,0,0,0,0,0.3272,0.3285,0.3293,0.33,0.3332,0.3367,0.3371,0.3381,0.3377,0.3393,0.3397,0.3379,0.3417,0.3395,0.3395,0.3429,0.3443,0.3448,0.3452,0.3508,0.3519,0.3528,0,0,0,0,0,0,0.3252,0.3287,0.3296,0.3318,0.3349,0.3368,0.3386,0.3392,0.3408,0.3408,0.3398,0.3399,0.3439,0.3426,0.3402,0.3465,0.3429,0.3434,0.3472,0.3482,0.349,0.3497,0.3371,0,0,0,0,0,0.3255,0.3276,0.331,0.333,0.3349,0.337,0.3387,0.3396,0.3413,0.342,0.3423,0.3432,0.3456,0.3462,0.3477,0.3502,0.3512,0.3528,0.3536,0.3543,0.3552,0.3597,0.361,0.3469,0.3469,0.3468,0,0,0.3253,0.3277,0.3287,0.3329,0.3352,0.3383,0.3379,0.3412,0.3438,0.3418,0.3451,0.3464,0.3473,0.351,0.3526,0.3502,0.3592,0.3549,0.3555,0.3559,0.3603,0.3616,0.3628,0.3471,0.3471,0.347,0,0,0.3259,0.3284,0.3304,0.3335,0.3381,0.34,0.3415,0.3447,0.3464,0.3499,0.3501,0.3536,0.3555,0.3574,0.3585,0.3649,0.3642,0.3657,0.3696,0.374,0.3752,0.3763,0.3804,0.3818,0.3653,0.3653,0.3653,0,0.3255,0.3287,0.3317,0.3348,0.3375,0.3411,0.344,0.3469,0.3504,0.3527,0.3518,0.3583,0.3589,0.3646,0.3672,0.3669,0.3691,0.3654,0.3751,0.3761,0.3771,0.3811,0.3825,0.3656,0.3656,0.3656,0.3655,0,0.3275,0.3309,0.3329,0.338,0.3411,0.3448,0.3493,0.3531,0.3556,0.3582,0.3648,0.3664,0.3703,0.3717,0.3714,0.3791,0.3785,0.3762,0.3722,0.3789,0.3827,0.3841,0.3661,0.366,0.3659,0.3658,0,0,0.3244,0.3326,0.3333,0.3363,0.3432,0.3456,0.3519,0.3582,0.3635,0.3669,0.3731,0.3778,0.3795,0.381,0.3818,0.3854,0.3946,0.3841,0.3841,0.3877,0.4052,0.4008,0.4018,0.394,0.3943,0.3945,0.4055,0,0.3254,0.3305,0.335,0.3407,0.3437,0.35,0.3556,0.3617,0.3678,0.375,0.3788,0.3854,0.3829,0.3865,0.3898,0.3945,0.3983,0.3918,0.3986,0.3988,0.3936,0.4032,0.3721,0.379,0.4068,0.407,0.4072,0,0.3252,0.3291,0.3337,0.3425,0.3446,0.3487,0.3588,0.365,0.3764,0.3818,0.3887,0.3927,0.4007,0.3969,0.4067,0.403,0.405,0.4069,0.4073,0.4018,0.3969,0.3767,0.3804,0.4094,0.4093,0.4091,0.409,0,0.3192,0.3281,0.3314,0.3342,0.3445,0.3484,0.3548,0.3661,0.3728,0.3873,0.3935,0.4026,0.4088,0.4128,0.4171,0.4135,0.4271,0.422,0.4195,0.4192,0.3933,0.3903,0.4285,0.4285,0.4285,0.4284,0.4284,0,0.3172,0.3203,0.3291,0.3308,0.3372,0.3451,0.3539,0.3634,0.3764,0.3847,0.396,0.4037,0.4133,0.4212,0.4223,0.4266,0.4314,0.4231,0.4228,0.3948,0.392,0.4176,0.4162,0.4289,0.4288,0.4287,0.4286,0,0.3099,0.3157,0.3205,0.3306,0.3341,0.3384,0.3521,0.3585,0.3731,0.3846,0.3897,0.4075,0.4197,0.4272,0.4373,0.4338,0.438,0.4373,0.4047,0.4004,0.4256,0.4244,0.4366,0.4366,0.4366,0.4365,0.4365,0,0.3067,0.308,0.3179,0.3202,0.325,0.3331,0.3386,0.3547,0.3624,0.3848,0.3891,0.4075,0.4179,0.4332,0.4333,0.4377,0.4407,0.4088,0.3958,0.4286,0.427,0.4259,0.4247,0.3641,0.3635,0.363,0.3626,0,0.3005,0.3039,0.3074,0.3124,0.3173,0.3235,0.3333,0.339,0.3579,0.3678,0.3833,0.3946,0.4137,0.4071,0.4154,0.4118,0.406,0.3989,0.4421,0.3678,0.3613,0.3594,0.3604,0.3581,0.3585,0.3589,0.3591,0.3593,0.2951,0.2957,0.2996,0.3033,0.308,0.3109,0.3116,0.3226,0.3315,0.3431,0.3644,0.3701,0.3807,0.3793,0.3701,0.3634,0.3905,0.3706,0.3716,0.3733,0.3639,0.3578,0.3522,0.3525,0.3529,0.3532,0.3535,0,0.2865,0.2875,0.2901,0.2919,0.2901,0.2981,0.3044,0.3016,0.3043,0.3203,0.3306,0.313,0.3138,0.3222,0.308,0.3115,0.3027,0.2964,0.2804,0.2856,0.29,0.2755,0.2407,0.2403,0.2398,0.2395,0,0,0.2817,0.2788,0.2793,0.2722,0.2736,0.2667,0.2668,0.2657,0.2718,0.271,0.2726,0.299,0.3153,0.2719,0.2695,0.2517,0.2644,0.2421,0.3343,0.3207,0.3244,0.337,0.3213,0,0,0,0,0]},{"header":{"parameterUnit":"m.s-1","parameterCategory":2,"la1":30.2991,"la2":30.254,"lo1":-89.0895,"lo2":-89.0444,"dy":0.0017,"dx":0.0017,"nx":28,"ny":28,"refTime":"2024-02-07T09:00:00:Z","depth":"2","parameterNumber":3,"parameterNumberName":"V-component_of_CURRENTS"},"data":[0,0,0,0,0,0,0,0,0,0,0,0,0,0,0,0,0,0,0,0,0,0,0,0,0,0,0,0,0,0,0,0,0,0,0,0,0,0,0,0,0,0,0,0,0,0,0,0,0,0,0,0,0,0,0,0,0,0,0.0191,0.0191,0,0.0126,0.0125,0.0124,0.0077,0.0076,0.0076,0.0076,-0.0018,-0.002,-0.0022,0,0,0,0,0,0,0,0,0,0,0,0,0,0.0213,0.0213,0.0191,0.0191,0.019,0.0126,0.0125,0.0124,0.0077,0.0076,0.0076,0.0076,-0.0017,-0.002,-0.0022,0,0,0,0,0,0,0,0,0,0,0,0,0,0.0179,0.0213,0.0192,0.0161,0.0158,0.0127,0.0125,0.0124,0.0077,0.0076,0.0076,0.0076,-0.0016,-0.0019,-0.0023,-0.0039,0,0,-0.0033,-0.0035,0,0,0,0,0,0,0,0,0.0181,0.0178,0.0166,0.0163,0.0159,0.0111,0.0099,0.0069,0.0077,0.0105,0.0076,0.0076,0.0025,0.0018,0.0003,-0.0044,-0.0048,-0.0034,-0.0036,-0.0037,-0.0038,0,0,0,0,0,0,0,0.0184,0.018,0.0163,0.0165,0.0161,0.0129,0.0124,0.0092,0.0064,0.0102,0.0099,0.0096,0.0022,0.0007,0.0,-0.0049,-0.0034,-0.0037,-0.0039,-0.004,-0.0116,-0.0116,0,0,0,0,0,0,0.0201,0.0183,0.0165,0.0161,0.0173,0.013,0.0124,0.0125,0.0065,0.0057,0.0096,0.0094,0.0013,0.0005,-0.0003,-0.001,-0.0037,-0.0041,-0.0043,-0.0116,-0.0116,-0.0116,0,0,0,0,0,0,0.0201,0.02,0.0168,0.0172,0.0166,0.013,0.0131,0.0124,0.0111,0.0062,0.0052,0.0092,0.0012,0.0002,-0.0023,-0.0014,-0.0042,-0.0045,-0.0116,-0.0116,-0.0116,-0.0034,0,0,0,0,0,0,0.0202,0.0201,0.0207,0.0174,0.0167,0.0161,0.0131,0.0123,0.0111,0.0107,0.0055,0.0045,0.0011,-0.0017,-0.0026,-0.002,-0.0048,-0.0116,-0.0116,-0.0116,-0.0036,-0.0031,-0.0026,0,0,0,0,0,0.0204,0.022,0.0208,0.0206,0.0177,0.0162,0.0155,0.0126,0.0111,0.0112,0.0077,0.0047,-0.0023,-0.0019,-0.003,-0.0025,-0.0117,-0.0116,-0.0116,-0.0039,-0.0032,-0.0026,0,0,0,0,0,0,0.0233,0.0215,0.0202,0.0212,0.0192,0.0155,0.0154,0.0132,0.0104,0.0103,0.0051,0.004,0.002,-0.0015,-0.001,-0.0048,-0.0076,-0.0078,-0.0014,-0.0008,-0.0002,0.0027,-0.0051,0,0,0,0,0,0.0243,0.025,0.0224,0.0232,0.0226,0.019,0.018,0.0163,0.0134,0.0122,0.0084,0.0044,0.0012,-0.0006,-0.004,-0.0058,-0.0096,-0.0064,-0.0059,-0.0054,-0.0038,-0.009,-0.0087,-0.0116,-0.0116,-0.0116,0,0,0.0257,0.0248,0.0252,0.0238,0.022,0.0226,0.0183,0.0178,0.0182,0.0116,0.0108,0.0063,0.0011,-0.0008,-0.0021,-0.0035,-0.0067,-0.0054,-0.0049,-0.0036,-0.0089,-0.0086,-0.0084,-0.0115,-0.0115,-0.0115,0,0,0.0295,0.028,0.0302,0.0292,0.0277,0.0256,0.0259,0.0227,0.0211,0.0195,0.015,0.0114,0.0063,0.0029,0.0004,0.0017,-0.0036,0.0002,0.0052,0.0002,0.0005,0.0006,-0.0039,-0.0042,0.0003,0.0003,0.0003,0,0.0312,0.0335,0.0304,0.0323,0.0324,0.0276,0.03,0.0278,0.0241,0.0235,0.0206,0.013,0.0082,0.0059,0.0062,0.0031,-0.0004,0.0035,0.0011,0.0012,0.0012,-0.0035,-0.004,0.0007,0.0007,0.0006,0.0006,0,0.0365,0.0383,0.0395,0.0403,0.0399,0.0411,0.0382,0.0375,0.0344,0.0316,0.0285,0.0213,0.017,0.0141,0.0106,0.0086,0.0058,0.0026,0.0001,0.002,-0.0031,-0.0037,0.0013,0.0012,0.001,0.0009,0,0,0.0407,0.0429,0.0435,0.0458,0.0445,0.0452,0.0459,0.0451,0.0466,0.0404,0.0406,0.033,0.0284,0.0254,0.0194,0.0146,0.0108,0.0096,0.0091,0.0062,0.0002,-0.0015,-0.0024,0.0073,0.0072,0.0072,-0.0034,0,0.0458,0.0519,0.0509,0.0563,0.0591,0.0558,0.0573,0.0559,0.0529,0.0517,0.043,0.0406,0.0328,0.031,0.025,0.015,0.0096,0.014,-0.0022,-0.0026,-0.0035,-0.003,0.0012,-0.0079,-0.0041,-0.0042,-0.0043,0,0.052,0.0552,0.0615,0.0656,0.0665,0.0684,0.0703,0.0715,0.0681,0.0657,0.0606,0.0535,0.0461,0.0388,0.0226,0.0259,0.0145,0.0055,0.0048,0.0003,-0.0054,-0.0094,-0.0092,-0.0054,-0.0053,-0.0052,-0.0051,0,0.0577,0.0631,0.0685,0.0697,0.0726,0.075,0.0768,0.0759,0.0792,0.0751,0.0756,0.0642,0.0598,0.044,0.0254,0.024,0.0071,0.0022,-0.0105,-0.0108,-0.0118,-0.012,-0.0094,-0.0094,-0.0094,-0.0094,-0.0093,0,0.064,0.0686,0.072,0.075,0.0825,0.0822,0.0897,0.0895,0.0912,0.0959,0.0838,0.0844,0.061,0.0482,0.0295,0.0087,0.0097,-0.0088,-0.0133,-0.0089,-0.0088,-0.0102,-0.0101,-0.0098,-0.0097,-0.0096,-0.0095,0,0.0696,0.0713,0.0788,0.0835,0.0857,0.0917,0.1003,0.106,0.1055,0.1111,0.1105,0.1,0.0833,0.0588,0.0334,0.0156,-0.0053,-0.0132,-0.0061,-0.0096,-0.0213,-0.0207,-0.0289,-0.029,-0.0291,-0.0292,-0.0293,0,0.073,0.0773,0.0858,0.0912,0.0938,0.1026,0.1093,0.1131,0.1202,0.1216,0.1254,0.1115,0.1042,0.0664,0.0323,-0.0011,-0.0057,-0.0193,-0.022,-0.0195,-0.0232,-0.0224,-0.0217,-0.0209,-0.0209,-0.0209,-0.0209,0,0.0794,0.0823,0.0883,0.1001,0.1082,0.119,0.129,0.137,0.1416,0.1464,0.1504,0.1449,0.1085,0.0758,0.0297,0.0082,-0.0139,-0.0205,-0.02,-0.0158,-0.0127,-0.0161,-0.0155,-0.021,-0.021,-0.021,-0.021,-0.021,0.0843,0.0901,0.0984,0.1096,0.1201,0.1338,0.1441,0.1551,0.168,0.1752,0.1695,0.1617,0.1229,0.0652,0.0253,-0.0159,-0.0141,-0.0284,-0.0281,-0.0279,-0.0242,-0.0214,-0.0307,-0.0307,-0.0308,-0.0308,-0.0308,0,0.0902,0.0967,0.1075,0.1211,0.1338,0.1386,0.156,0.1666,0.1824,0.1877,0.1903,0.1548,0.1169,0.0721,0.0103,-0.0261,-0.0278,-0.0365,-0.0316,-0.0311,-0.0308,-0.0273,-0.0347,-0.0348,-0.0349,-0.0351,0,0,0.0933,0.1037,0.109,0.1295,0.1403,0.1579,0.1687,0.1839,0.1927,0.199,0.1945,0.1843,0.1302,0.0847,0.0347,-0.0011,-0.0069,-0.0065,0.0011,0.0134,0.0142,-0.0213,-0.0147,0,0,0,0,0]}],[{"header":{"parameterUnit":"m.s-1","parameterCategory":2,"la1":30.2991,"la2":30.254,"lo1":-89.0895,"lo2":-89.0444,"dy":0.0017,"dx":0.0017,"nx":28,"ny":28,"refTime":"2024-02-07T09:00:00:Z","depth":"4","parameterNumber":2,"parameterNumberName":"U-component_of_CURRENTS"},"data":[0,0,0,0,0,0,0,0,0,0,0,0,0,0,0,0,0,0,0,0,0,0,0,0,0,0,0,0,0,0,0,0,0,0,0,0,0,0,0,0,0,0,0,0,0,0,0,0,0,0,0,0,0,0,0,0,0,0,0.2223,0.2224,0,0.231,0.231,0.2311,0.2383,0.2384,0.2385,0.2386,0.2484,0.2486,0.2487,0,0,0,0,0,0,0,0,0,0,0,0,0,0.2109,0.2111,0.2223,0.2225,0.2226,0.2309,0.231,0.2311,0.2383,0.2384,0.2385,0.2386,0.2483,0.2485,0.2487,0,0,0,0,0,0,0,0,0,0,0,0,0,0.2171,0.2111,0.2223,0.2274,0.2279,0.2309,0.231,0.2312,0.2382,0.2384,0.2385,0.2387,0.2483,0.2485,0.2488,0.2473,0,0,0.2495,0.2496,0,0,0,0,0,0,0,0,0.2167,0.2175,0.2265,0.227,0.2277,0.2339,0.2306,0.2367,0.2382,0.234,0.2386,0.2388,0.2437,0.2444,0.2452,0.2477,0.2481,0.2496,0.2497,0.2498,0.2499,0,0,0,0,0,0,0,0.2163,0.2171,0.2255,0.2266,0.2273,0.2288,0.2299,0.2318,0.2377,0.2344,0.235,0.2364,0.2441,0.245,0.2455,0.2483,0.2495,0.2498,0.2499,0.25,0.2647,0.2649,0,0,0,0,0,0,0.2157,0.2167,0.2252,0.2258,0.2228,0.2289,0.2301,0.2315,0.2377,0.2389,0.2362,0.2367,0.2445,0.2452,0.2459,0.2576,0.2498,0.25,0.2502,0.2645,0.2648,0.265,0,0,0,0,0,0,0.2154,0.2163,0.2249,0.2216,0.2229,0.229,0.2306,0.2316,0.2375,0.2391,0.2403,0.2416,0.2446,0.2456,0.2523,0.2575,0.2502,0.2504,0.2642,0.2646,0.2649,0.2725,0,0,0,0,0,0,0.215,0.2162,0.2193,0.2216,0.223,0.2299,0.2305,0.2317,0.2379,0.2387,0.244,0.2448,0.2448,0.252,0.2526,0.2577,0.2506,0.2639,0.2644,0.2648,0.272,0.2731,0.274,0,0,0,0,0,0.2146,0.2172,0.2194,0.2205,0.2263,0.2301,0.2311,0.2356,0.2381,0.2414,0.2455,0.2449,0.2553,0.2524,0.253,0.2584,0.2637,0.2642,0.2647,0.2715,0.2729,0.274,0,0,0,0,0,0,0.214,0.2183,0.2207,0.2248,0.2289,0.2315,0.2357,0.2382,0.2439,0.2463,0.2475,0.2486,0.2568,0.2564,0.2532,0.2641,0.2596,0.2603,0.2645,0.2658,0.2668,0.2669,0.2508,0,0,0,0,0,0.2151,0.2189,0.2226,0.2266,0.2291,0.2333,0.2364,0.2395,0.2436,0.2466,0.2501,0.2543,0.2585,0.2614,0.2646,0.2699,0.27,0.2741,0.2751,0.276,0.2767,0.281,0.2824,0.2668,0.2668,0.2668,0,0,0.2161,0.2192,0.2215,0.227,0.2308,0.2347,0.2357,0.2417,0.2462,0.2465,0.2552,0.2585,0.261,0.2677,0.2713,0.2686,0.2808,0.2767,0.2774,0.2776,0.2817,0.2832,0.2845,0.2672,0.2671,0.267,0,0,0.218,0.2229,0.2263,0.2301,0.2367,0.2391,0.2419,0.2474,0.252,0.2591,0.2614,0.2679,0.2738,0.2767,0.2786,0.2873,0.2865,0.2894,0.2945,0.2988,0.3,0.3011,0.3041,0.3054,0.2895,0.2895,0.2895,0,0.2195,0.2239,0.228,0.232,0.236,0.2416,0.2458,0.2506,0.258,0.2622,0.2635,0.2752,0.2778,0.2853,0.2893,0.2897,0.2916,0.2893,0.3,0.3011,0.3021,0.3049,0.3062,0.29,0.2899,0.2899,0.2898,0,0.2221,0.2279,0.2306,0.2374,0.2419,0.2473,0.2532,0.2599,0.2661,0.2703,0.2811,0.2851,0.2918,0.2944,0.2949,0.3043,0.3033,0.301,0.2963,0.3041,0.3066,0.3079,0.2906,0.2904,0.2903,0.2902,0,0,0.2196,0.2304,0.232,0.2364,0.2458,0.249,0.2581,0.2665,0.2737,0.2816,0.2903,0.2986,0.3022,0.3047,0.307,0.3111,0.3207,0.3103,0.3103,0.3124,0.3306,0.3104,0.3098,0.3208,0.3211,0.3213,0.3296,0,0.2213,0.2287,0.2343,0.2429,0.247,0.2556,0.2632,0.2719,0.2804,0.2903,0.2968,0.3064,0.3056,0.3115,0.3155,0.3204,0.3244,0.3187,0.3234,0.3235,0.3039,0.3107,0.3221,0.3306,0.3308,0.331,0.3312,0,0.221,0.2266,0.2346,0.2462,0.2492,0.2557,0.2692,0.2771,0.2911,0.2985,0.3082,0.314,0.3242,0.3218,0.3322,0.3292,0.3312,0.3329,0.3332,0.3122,0.3056,0.3211,0.3334,0.3333,0.3331,0.3329,0.3328,0,0.2145,0.2266,0.2332,0.2371,0.2507,0.2577,0.2664,0.2802,0.2882,0.3053,0.3127,0.3241,0.3322,0.3367,0.3412,0.339,0.3502,0.3465,0.3296,0.3282,0.3405,0.3392,0.3528,0.3528,0.3528,0.3527,0.3527,0,0.2112,0.2174,0.2319,0.2353,0.2454,0.2558,0.2684,0.2792,0.2944,0.3032,0.3171,0.3239,0.3369,0.3439,0.3453,0.3409,0.3536,0.3314,0.329,0.3437,0.3426,0.3414,0.34,0.353,0.353,0.3529,0.3529,0,0.2024,0.2121,0.2209,0.2367,0.2425,0.2499,0.2686,0.276,0.293,0.3049,0.3112,0.3279,0.3369,0.3453,0.3543,0.3442,0.3436,0.3387,0.3555,0.3539,0.3179,0.3169,0.3199,0.3193,0.3188,0.3183,0.3179,0,0.198,0.2018,0.2198,0.2253,0.2336,0.2468,0.2549,0.2737,0.281,0.3032,0.3062,0.3226,0.3312,0.3268,0.3378,0.3389,0.3347,0.332,0.3227,0.3172,0.3147,0.3145,0.3142,0.317,0.3169,0.3168,0.3166,0,0.1896,0.1982,0.2053,0.2168,0.2266,0.2358,0.2491,0.2525,0.2725,0.29,0.2943,0.2987,0.308,0.3136,0.3175,0.3172,0.3322,0.3262,0.3272,0.3185,0.3137,0.3118,0.3121,0.3147,0.315,0.3152,0.3153,0,0.184,0.1868,0.1973,0.2056,0.2166,0.2203,0.2298,0.2373,0.2467,0.2701,0.271,0.2876,0.3044,0.3024,0.3055,0.3045,0.2993,0.2882,0.2911,0.2933,0.2806,0.2704,0.2567,0,0,0,0,0,0.1767,0.1778,0.1846,0.1917,0.2014,0.2081,0.223,0.2324,0.2514,0.2475,0.2584,0.2653,0.2698,0.2789,0.2726,0.2947,0.3013,0.286,0.2901,0.3042,0.3064,0.2938,0,0,0,0,0,0,0.1714,0.1774,0.1793,0.1777,0.1797,0.1882,0.197,0.2102,0.2097,0.2298,0.234,0.2491,0.2583,0.2704,0.2672,0.2701,0.2672,0.2973,0.2966,0.303,0.305,0.3067,0.2946,0,0,0,0,0]},{"header":{"parameterUnit":"m.s-1","parameterCategory":2,"la1":30.2991,"la2":30.254,"lo1":-89.0895,"lo2":-89.0444,"dy":0.0017,"dx":0.0017,"nx":28,"ny":28,"refTime":"2024-02-07T09:00:00:Z","depth":"4","parameterNumber":3,"parameterNumberName":"V-component_of_CURRENTS"},"data":[0,0,0,0,0,0,0,0,0,0,0,0,0,0,0,0,0,0,0,0,0,0,0,0,0,0,0,0,0,0,0,0,0,0,0,0,0,0,0,0,0,0,0,0,0,0,0,0,0,0,0,0,0,0,0,0,0,0,0.0174,0.0174,0,0.0131,0.013,0.0129,0.0099,0.0099,0.0099,0.0099,0.0031,0.003,0.0028,0,0,0,0,0,0,0,0,0,0,0,0,0,0.0186,0.0186,0.0174,0.0174,0.0174,0.0131,0.013,0.0129,0.0099,0.0099,0.0099,0.0099,0.0032,0.003,0.0028,0,0,0,0,0,0,0,0,0,0,0,0,0,0.0164,0.0186,0.0174,0.0155,0.0153,0.0131,0.013,0.0129,0.0099,0.0099,0.0099,0.0099,0.0033,0.003,0.0028,0.0012,0,0,0.0019,0.0018,0,0,0,0,0,0,0,0,0.0165,0.0163,0.0158,0.0156,0.0154,0.0122,0.0109,0.0089,0.0099,0.0117,0.0099,0.0099,0.0061,0.0056,0.0045,0.0009,0.0006,0.0019,0.0018,0.0016,0.0016,0,0,0,0,0,0,0,0.0167,0.0164,0.0155,0.0158,0.0155,0.0133,0.013,0.0105,0.0088,0.0116,0.0114,0.0113,0.0059,0.0048,0.0043,0.0005,0.0019,0.0017,0.0015,0.0014,-0.0045,-0.0045,0,0,0,0,0,0,0.0179,0.0166,0.0156,0.0154,0.0162,0.0133,0.013,0.0131,0.0088,0.0083,0.0113,0.0111,0.0052,0.0046,0.0041,0.0037,0.0016,0.0014,0.0012,-0.0045,-0.0045,-0.0045,0,0,0,0,0,0,0.0179,0.0179,0.0158,0.016,0.0157,0.0134,0.0135,0.013,0.0123,0.0087,0.008,0.0112,0.0052,0.0045,0.0028,0.0034,0.0013,0.001,-0.0045,-0.0045,-0.0045,0.0018,0,0,0,0,0,0,0.018,0.0179,0.0186,0.0162,0.0157,0.0154,0.0135,0.0129,0.0123,0.0121,0.0084,0.0077,0.0051,0.0032,0.0025,0.0029,0.0008,-0.0045,-0.0045,-0.0045,0.0016,0.002,0.0024,0,0,0,0,0,0.0181,0.0193,0.0187,0.0185,0.0167,0.0155,0.015,0.0132,0.0123,0.0124,0.0101,0.0079,0.0027,0.003,0.0022,0.0026,-0.0045,-0.0045,-0.0045,0.0014,0.002,0.0024,0,0,0,0,0,0,0.0201,0.019,0.0183,0.0191,0.0178,0.0151,0.0153,0.0138,0.0119,0.012,0.0081,0.0073,0.006,0.0033,0.0037,0.0007,-0.0014,-0.0016,0.0034,0.0038,0.0042,0.0067,0.0006,0,0,0,0,0,0.021,0.0217,0.0199,0.0206,0.0202,0.0178,0.0172,0.0161,0.0141,0.0133,0.0106,0.0076,0.0052,0.0039,0.0014,-0.0001,-0.0033,-0.0006,-0.0002,0.0002,0.0015,-0.0031,-0.003,-0.0045,-0.0045,-0.0045,0,0,0.0221,0.0216,0.022,0.0211,0.02,0.0205,0.0174,0.0173,0.0178,0.0128,0.0125,0.0092,0.0052,0.0038,0.0028,0.0017,-0.0012,0.0002,0.0006,0.0017,-0.0031,-0.003,-0.0028,-0.0045,-0.0045,-0.0045,0,0,0.0249,0.0241,0.0259,0.0253,0.0245,0.0229,0.0233,0.021,0.0201,0.0192,0.0158,0.013,0.0093,0.0065,0.0046,0.0055,0.0012,0.0044,0.0083,0.0038,0.0039,0.0039,-0.0002,-0.0005,0.0044,0.0044,0.0044,0,0.0263,0.0281,0.0261,0.0276,0.0279,0.0246,0.0265,0.025,0.0225,0.0221,0.0201,0.0144,0.0107,0.0087,0.009,0.0065,0.0035,0.0071,0.0044,0.0044,0.0044,0.0001,-0.0004,0.0047,0.0047,0.0047,0.0046,0,0.0302,0.0319,0.0328,0.0337,0.0337,0.0347,0.0328,0.0325,0.0306,0.0285,0.0262,0.0206,0.0174,0.015,0.0125,0.0104,0.0083,0.0057,0.0037,0.0049,0.0003,-0.0003,0.0052,0.0051,0.005,0.0049,0,0,0.0329,0.0352,0.0357,0.0379,0.0373,0.038,0.0389,0.0385,0.0398,0.0353,0.0355,0.0296,0.0261,0.0238,0.019,0.0148,0.0111,0.011,0.0106,0.0078,0.0016,0.0005,-0.0003,0.0082,0.0082,0.0081,-0.0016,0,0.0367,0.0415,0.0412,0.0458,0.0481,0.0462,0.0475,0.0468,0.0448,0.044,0.0372,0.0354,0.0295,0.0282,0.023,0.0146,0.0099,0.014,0.0,-0.0004,-0.0007,-0.0009,0.0079,-0.0021,-0.0022,-0.0023,-0.0024,0,0.0409,0.0436,0.0489,0.053,0.0538,0.0558,0.058,0.0592,0.0567,0.055,0.051,0.0455,0.0392,0.0338,0.0198,0.0229,0.0135,0.0059,0.0053,0.0021,-0.0025,-0.0038,-0.0036,-0.0035,-0.0034,-0.0033,-0.0033,0,0.0445,0.0494,0.0541,0.0553,0.0585,0.0611,0.0631,0.0628,0.0656,0.0626,0.063,0.0535,0.0498,0.0368,0.0213,0.0207,0.0053,0.0019,-0.0083,-0.0085,-0.0074,-0.0074,-0.0081,-0.0081,-0.0081,-0.008,-0.008,0,0.0483,0.0525,0.0567,0.0593,0.0661,0.0667,0.0734,0.0735,0.0752,0.0787,0.0697,0.069,0.0505,0.0393,0.0241,0.0066,0.0069,-0.0071,-0.0109,-0.0047,-0.0043,-0.0079,-0.0078,-0.0084,-0.0083,-0.0083,-0.0082,0,0.0513,0.0537,0.0604,0.0657,0.0683,0.0736,0.0821,0.0865,0.0869,0.091,0.0906,0.0809,0.0658,0.0462,0.0246,0.0114,-0.0061,-0.0126,-0.0035,-0.0068,-0.0178,-0.0172,-0.0248,-0.0249,-0.025,-0.0251,-0.0251,0,0.053,0.0567,0.0658,0.0708,0.0738,0.0822,0.0881,0.0923,0.0973,0.0981,0.0999,0.0878,0.078,0.0478,0.0262,-0.0035,-0.0083,-0.0176,-0.0187,-0.0164,-0.0194,-0.0187,-0.018,-0.0253,-0.0253,-0.0253,-0.0254,0,0.0562,0.0599,0.0652,0.0761,0.0838,0.0934,0.102,0.1066,0.1107,0.1111,0.1075,0.0914,0.0741,0.0489,0.0258,0.0044,-0.0117,-0.0187,-0.0187,-0.0198,-0.0171,-0.0198,-0.0191,-0.0257,-0.0256,-0.0256,-0.0256,0,0.0588,0.0634,0.0712,0.0807,0.0913,0.101,0.1057,0.111,0.116,0.1156,0.1143,0.0952,0.0845,0.0531,0.0322,0.0106,0.0041,-0.0037,-0.0046,-0.0045,0.0035,0.0101,0.0071,0,0,0,0,0,0.0609,0.066,0.0751,0.0857,0.0965,0.1031,0.1132,0.1167,0.1202,0.1186,0.1169,0.1005,0.0696,0.0571,0.0352,0.0282,-0.0008,0.0017,-0.0105,-0.0275,-0.0271,-0.0213,0,0,0,0,0,0,0.0619,0.0702,0.0747,0.0882,0.0963,0.1087,0.1156,0.1181,0.1175,0.1173,0.1018,0.0943,0.0646,0.082,0.0347,0.0282,0.0172,-0.0123,-0.0128,-0.0277,-0.0274,-0.0271,-0.021,0,0,0,0,0]}]]